Wind_Speed
17 18 18 18 20 21 23 24 26 26 28 28 29 29 30 30 32 32 33 33 34 36 36 37 38 39 41 42 42 43 43 42 42 43 42 42 41 41 41 42 42 42 42 42
18 20 21 21 20 21 23 25 26 26 25 26 29 30 29 30 31 33 33 34 35 35 35 36 37 38 39 40 41 41 41 42 42 42 42 42 42 42 42 42 42 42 42 42
18 20 22 22 22 22 23 24 25 26 26 26 26 27 28 29 30 32 33 34 35 36 36 36 36 37 38 39 40 40 41 41 42 42 43 43 42 42 43 43 42 42 42 42
20 21 22 22 23 23 24 24 25 26 26 27 27 27 28 29 30 32 33 34 35 36 36 37 37 38 38 39 41 41 42 42 42 43 43 43 43 43 43 43 43 42 43 42
21 22 24 22 22 23 24 24 25 25 26 27 28 28 28 29 30 31 32 34 35 36 36 36 37 38 39 39 39 41 41 41 42 42 42 42 43 43 43 43 43 42 42 42
23 23 23 22 22 23 25 26 26 25 26 27 28 29 28 29 31 31 31 32 34 35 35 35 36 37 37 38 39 39 40 41 42 42 42 41 41 42 43 42 42 41 41 41
24 24 23 23 22 23 25 25 25 26 27 27 28 29 29 30 31 31 31 32 32 33 34 35 35 35 36 37 38 38 39 40 40 41 41 41 40 40 41 41 41 41 40 39
25 25 23 23 23 23 24 24 25 26 27 27 29 29 30 30 31 31 31 31 32 32 32 33 34 35 35 36 37 38 38 38 39 39 40 40 40 40 39 39 40 40 39 38
26 25 25 25 24 24 24 25 25 26 27 27 28 29 30 31 31 31 31 31 31 32 32 32 33 34 34 36 37 37 37 37 38 38 38 39 39 39 39 39 39 39 38 38
27 26 26 26 26 25 25 26 26 27 26 26 27 28 29 30 30 30 30 30 30 30 31 32 32 32 32 33 35 36 36 36 36 36 36 36 37 38 38 38 38 38 37 37
27 26 26 27 27 27 27 25 25 25 25 25 26 27 28 28 28 28 29 29 29 29 29 30 31 31 32 32 32 33 34 35 35 35 36 36 36 37 37 37 37 36 36 36
27 27 27 26 26 26 26 25 24 24 24 24 25 26 26 27 27 28 28 28 28 28 28 28 28 29 30 31 31 31 32 33 34 35 36 35 35 35 35 36 36 36 34 34
27 27 26 27 27 26 25 24 24 24 24 24 24 25 25 25 25 25 26 26 26 27 28 28 27 28 28 28 29 29 30 31 32 33 33 33 33 33 33 34 34 33 33 32
27 27 27 27 27 25 25 24 24 24 25 24 24 23 23 22 22 22 23 24 25 25 26 27 27 28 28 27 27 27 28 29 30 31 32 32 32 32 31 31 31 31 32 31
27 28 28 28 27 25 25 24 24 23 24 23 22 21 21 20 20 21 21 22 22 23 24 25 26 26 26 26 26 26 27 27 28 29 31 31 31 31 31 31 30 30 30 30
28 28 28 28 27 26 24 24 23 23 23 23 22 21 21 20 20 20 21 21 21 22 23 23 24 25 25 25 25 25 26 26 27 28 28 29 30 30 30 30 29 29 29 28
27 27 28 27 26 24 23 23 23 24 24 24 23 22 21 21 21 21 20 21 21 22 23 23 23 24 25 26 25 25 25 25 25 25 26 26 26 27 27 27 27 27 27 28
26 26 26 26 24 23 23 23 23 24 24 22 22 21 21 20 19 19 19 19 20 20 20 21 21 21 21 22 22 22 23 23 23 23 23 24 24 24 25 25 25 26 26 26
26 26 27 26 25 24 23 23 23 23 22 21 20 20 20 19 19 18 18 18 18 18 18 19 19 20 20 21 20 21 21 21 21 22 22 22 22 23 23 23 23 23 23 24
27 27 27 26 25 25 24 23 23 23 22 21 21 20 19 18 18 18 18 18 18 18 18 18 19 20 20 21 20 20 20 20 20 21 21 21 21 22 22 23 22 22 22 22
28 28 28 26 25 24 24 24 23 22 21 20 19 18 17 17 17 16 17 17 17 17 17 17 17 18 18 19 19 19 19 19 19 19 19 19 20 21 21 21 20 20 19 20
29 28 27 26 25 24 23 23 22 20 19 18 17 17 16 15 15 15 16 16 16 16 16 16 16 16 16 17 17 17 17 17 17 18 18 18 19 19 19 19 18 18 18 18
29 28 27 26 25 24 23 22 21 19 18 17 16 16 15 15 15 15 14 14 14 15 15 15 15 15 15 15 16 17 17 17 17 17 18 18 17 17 17 17 17 17 17 17
28 28 27 25 24 23 22 21 19 18 17 16 15 15 15 15 15 15 14 14 13 14 14 14 13 14 14 14 14 16 17 17 17 17 17 17 17 17 16 16 16 16 17 16
28 27 26 24 23 22 21 20 19 18 16 15 15 15 15 14 15 14 14 14 13 13 13 13 13 13 13 13 12 13 15 15 16 16 15 15 16 16 16 16 15 15 15 14
28 27 25 23 22 20 20 19 18 17 16 15 15 15 15 14 14 14 13 13 13 12 12 12 12 12 12 13 13 12 13 13 13 13 14 14 14 15 15 14 14 13 13 13
27 25 23 22 21 20 19 19 17 16 15 15 15 15 14 13 13 13 13 13 12 12 12 12 12 12 12 12 12 12 12 12 13 13 13 13 14 14 14 14 13 13 12 12
Wind_Direction
293 288 285 283 277 270 266 267 269 271 267 263 263 263 260 256 253 251 250 250 249 249 248 247 246 245 244 243 243 244 245 245 247 247 247 249 250 253 255 257 259 261 262 265
295 290 287 285 283 278 272 270 272 272 269 264 266 262 261 258 255 254 254 251 249 249 248 247 246 246 246 245 245 245 245 246 246 247 249 250 252 253 256 257 260 261 263 264
297 294 291 287 285 282 277 276 274 274 272 271 268 265 262 259 257 256 255 253 251 249 248 248 247 246 245 244 245 245 245 246 247 248 251 251 251 253 255 256 259 261 262 263
302 297 295 292 286 283 280 278 277 275 273 272 271 268 264 260 259 258 256 254 252 251 250 250 250 247 246 246 246 247 247 247 248 250 252 253 253 254 255 256 258 260 262 263
308 304 299 295 289 283 282 281 279 276 273 270 270 269 265 262 262 261 258 255 253 252 251 250 250 249 248 248 248 248 248 249 249 251 251 253 254 255 256 257 259 260 262 263
312 308 306 300 292 286 284 282 280 278 274 271 269 269 267 265 264 263 260 257 254 252 250 250 251 250 250 249 249 249 248 249 250 251 252 253 254 255 256 257 259 259 261 263
312 309 306 304 297 290 286 285 281 279 276 273 271 270 269 267 266 263 260 259 257 255 253 252 252 252 251 250 251 251 250 249 249 250 252 253 254 255 256 256 257 258 260 262
311 309 307 306 299 293 291 287 285 283 280 276 273 271 270 269 267 264 261 259 258 257 256 255 253 253 252 252 252 251 251 250 250 250 251 252 253 254 253 254 256 256 258 260
311 309 306 303 300 298 295 293 290 285 282 281 277 274 271 269 268 265 263 262 260 258 257 256 255 255 254 253 252 252 251 251 251 251 252 252 252 252 254 255 256 257 258 259
311 308 305 302 299 298 298 296 292 287 283 282 280 276 272 269 266 265 264 262 260 259 258 255 255 255 255 254 253 252 251 251 251 251 251 251 251 252 254 255 256 257 258 260
310 308 304 302 300 298 297 296 295 292 289 286 282 279 276 272 267 265 264 261 260 259 258 256 255 255 255 255 255 253 252 251 250 251 251 251 252 253 253 254 255 257 259 260
309 307 305 304 302 301 299 297 296 295 295 292 287 283 281 276 270 266 264 262 260 258 256 255 254 255 255 256 255 254 253 252 251 251 250 251 252 253 253 253 255 256 257 259
310 309 307 306 302 299 297 297 297 297 297 294 291 286 282 278 273 268 264 262 260 257 256 254 255 257 258 258 257 256 254 253 252 252 251 250 252 253 253 253 253 254 256 259
310 310 309 307 304 299 296 295 296 298 297 295 294 291 286 280 274 269 266 264 261 258 256 255 256 257 258 258 259 257 255 254 252 251 250 249 250 250 250 251 252 253 255 257
309 310 310 309 305 300 297 293 293 297 298 295 294 292 287 280 275 271 268 265 263 260 259 258 257 257 258 260 260 259 256 253 252 251 249 249 249 249 249 251 252 253 253 255
307 309 309 307 304 300 297 293 292 295 297 295 292 291 287 281 277 274 270 266 263 262 261 260 259 258 258 258 258 258 256 254 252 250 249 249 249 249 250 251 251 252 253 254
308 308 308 306 304 301 298 294 293 295 295 293 289 287 285 282 279 276 272 268 265 264 262 260 259 259 259 258 257 257 255 254 251 250 249 248 248 249 249 249 251 252 254 256
310 309 310 309 306 302 299 297 296 295 294 291 287 285 283 281 279 277 274 270 267 265 262 260 260 258 258 257 256 255 252 251 250 248 247 246 247 247 247 248 250 253 255 256
313 311 310 308 306 303 300 298 298 296 293 288 285 284 282 281 279 276 275 272 268 266 264 263 262 259 257 256 256 254 252 249 247 246 246 246 246 246 246 247 249 253 254 255
312 311 309 307 305 304 302 301 301 297 291 287 283 281 280 280 280 276 275 271 267 266 266 265 263 260 258 257 254 252 250 248 246 245 246 247 247 247 247 248 251 254 255 255
310 311 309 307 306 305 303 302 302 299 293 287 284 281 278 278 280 279 276 271 267 265 266 266 264 261 257 254 252 250 247 245 244 245 246 248 248 246 246 248 250 251 252 254
310 311 310 308 306 305 304 304 303 299 294 288 284 280 278 278 280 281 278 273 267 265 266 267 265 260 256 252 249 245 243 241 242 244 247 248 247 244 244 246 247 248 250 254
310 310 309 307 306 304 303 304 303 300 293 287 283 280 278 277 278 280 278 274 268 265 265 266 264 258 255 252 247 243 241 241 244 246 247 247 245 243 242 244 246 248 253 254
308 309 308 306 305 303 303 303 301 298 294 288 283 283 281 276 276 276 274 272 267 265 265 265 263 259 254 251 247 244 242 242 244 245 244 244 242 241 242 244 246 250 253 253
307 307 306 305 303 302 303 301 300 298 294 289 285 285 283 278 274 272 270 269 266 265 264 264 263 259 254 247 244 241 239 238 239 240 239 239 240 241 240 240 242 244 247 246
304 305 304 303 302 302 301 300 299 297 293 290 288 285 281 278 274 269 267 266 264 263 262 262 261 256 250 244 242 239 236 233 231 231 233 235 236 236 233 234 238 241 242 242
301 301 301 300 300 301 300 299 298 295 293 291 288 286 282 277 272 266 264 262 261 261 260 260 259 254 248 242 236 232 230 229 230 231 232 233 234 232 230 232 233 237 240 239
Height
5596 5594 5594 5593 5593 5592 5592 5591 5592 5593 5593 5593 5593 5594 5595 5597 5599 5602 5604 5607 5609 5612 5614 5617 5620 5623 5627 5630 5634 5637 5641 5644 5648 5651 5654 5657 5660 5663 5666 5668 5670 5672 5673 5674
5593 5591 5590 5589 5588 5587 5587 5586 5586 5585 5586 5586 5586 5587 5587 5589 5591 5593 5596 5598 5600 5602 5605 5608 5611 5614 5617 5621 5624 5627 5631 5634 5638 5641 5644 5647 5650 5653 5655 5657 5659 5661 5663 5664
5589 5587 5585 5585 5584 5582 5581 5581 5580 5579 5580 5579 5579 5580 5580 5581 5582 5584 5586 5589 5591 5593 5596 5598 5601 5604 5608 5611 5614 5617 5621 5624 5627 5630 5634 5637 5639 5642 5645 5647 5649 5651 5652 5654
5583 5582 5581 5582 5578 5577 5575 5575 5574 5573 5573 5572 5572 5572 5573 5573 5574 5576 5577 5579 5581 5584 5586 5589 5592 5594 5597 5600 5603 5607 5610 5614 5617 5620 5623 5626 5629 5631 5634 5636 5638 5639 5641 5643
5578 5576 5574 5575 5572 5570 5569 5569 5568 5566 5566 5565 5565 5565 5566 5566 5567 5568 5569 5570 5572 5574 5577 5579 5582 5584 5587 5590 5593 5596 5600 5603 5606 5609 5612 5615 5618 5620 5622 5625 5627 5628 5630 5631
5573 5569 5568 5569 5566 5563 5562 5562 5561 5559 5558 5558 5557 5557 5559 5558 5558 5559 5560 5561 5563 5565 5567 5569 5572 5574 5577 5580 5583 5586 5589 5592 5595 5598 5601 5604 5606 5609 5611 5613 5615 5617 5619 5620
5568 5564 5563 5562 5559 5557 5557 5556 5554 5552 5551 5550 5549 5550 5550 5549 5549 5550 5550 5552 5553 5555 5557 5559 5562 5564 5567 5570 5573 5575 5578 5581 5584 5587 5590 5593 5595 5598 5600 5602 5604 5606 5608 5609
5564 5560 5561 5556 5553 5552 5551 5548 5547 5545 5544 5542 5542 5541 5541 5540 5540 5540 5541 5542 5544 5546 5548 5550 5552 5554 5557 5559 5562 5565 5567 5570 5573 5576 5579 5581 5584 5586 5589 5591 5593 5595 5597 5598
5559 5558 5554 5550 5547 5545 5543 5541 5539 5537 5536 5534 5533 5532 5532 5532 5532 5532 5532 5533 5535 5536 5538 5540 5542 5544 5547 5549 5551 5554 5556 5559 5562 5565 5567 5570 5573 5576 5578 5580 5583 5585 5586 5588
5553 5551 5548 5543 5541 5539 5536 5534 5532 5530 5528 5526 5525 5523 5523 5523 5523 5523 5524 5524 5526 5527 5529 5531 5533 5535 5537 5539 5541 5543 5546 5549 5551 5554 5557 5559 5562 5565 5567 5570 5572 5574 5576 5577
5547 5545 5541 5538 5534 5532 5529 5527 5525 5523 5520 5518 5516 5515 5514 5514 5514 5514 5515 5515 5516 5518 5520 5522 5524 5526 5527 5529 5532 5534 5536 5538 5541 5543 5546 5549 5551 5554 5556 5559 5561 5564 5566 5567
5541 5538 5534 5532 5528 5525 5522 5520 5518 5515 5513 5510 5508 5507 5506 5505 5505 5506 5506 5507 5508 5509 5511 5513 5515 5517 5519 5520 5522 5524 5526 5528 5531 5533 5536 5538 5541 5544 5546 5549 5551 5553 5555 5557
5534 5531 5527 5524 5521 5518 5515 5513 5511 5508 5506 5503 5501 5499 5498 5498 5497 5497 5498 5499 5500 5501 5503 5505 5507 5508 5510 5511 5513 5515 5517 5519 5521 5524 5526 5529 5531 5534 5536 5539 5541 5543 5545 5547
5527 5524 5521 5517 5514 5511 5508 5506 5504 5501 5499 5496 5494 5492 5491 5491 5491 5491 5491 5492 5493 5494 5495 5497 5498 5500 5502 5503 5505 5506 5508 5510 5512 5514 5517 5519 5522 5524 5527 5529 5532 5533 5536 5537
5520 5517 5514 5510 5507 5504 5501 5499 5497 5495 5493 5490 5488 5486 5485 5485 5484 5484 5485 5485 5486 5487 5488 5489 5491 5492 5493 5495 5496 5497 5499 5501 5503 5505 5508 5510 5513 5515 5518 5521 5523 5525 5527 5528
5513 5510 5506 5503 5500 5497 5495 5492 5491 5489 5486 5484 5482 5481 5479 5479 5479 5478 5479 5479 5480 5481 5481 5482 5483 5484 5485 5486 5488 5489 5490 5492 5494 5496 5499 5501 5504 5507 5510 5512 5514 5516 5518 5520
5506 5503 5499 5496 5493 5490 5488 5486 5484 5482 5480 5478 5476 5475 5474 5473 5473 5472 5472 5472 5473 5473 5474 5475 5475 5476 5477 5478 5479 5480 5482 5483 5485 5488 5491 5493 5496 5499 5501 5504 5506 5508 5510 5511
5499 5496 5493 5489 5486 5483 5481 5479 5477 5475 5473 5471 5470 5469 5468 5467 5467 5466 5466 5466 5466 5466 5467 5467 5468 5469 5469 5470 5472 5473 5474 5476 5478 5480 5483 5486 5488 5491 5493 5495 5498 5500 5501 5503
5493 5490 5486 5483 5480 5477 5474 5472 5470 5468 5466 5464 5463 5463 5462 5461 5461 5460 5460 5460 5460 5461 5461 5461 5461 5462 5462 5463 5464 5466 5467 5469 5471 5473 5476 5478 5481 5483 5485 5488 5490 5492 5493 5495
5487 5484 5480 5476 5473 5470 5468 5465 5463 5461 5459 5457 5457 5456 5456 5455 5455 5455 5454 5454 5454 5454 5455 5455 5455 5455 5456 5457 5458 5459 5461 5463 5465 5467 5469 5471 5474 5476 5479 5481 5483 5485 5486 5487
5481 5477 5473 5470 5467 5464 5461 5459 5456 5454 5452 5451 5450 5450 5450 5449 5449 5449 5448 5448 5448 5448 5449 5449 5449 5449 5450 5451 5452 5454 5455 5457 5459 5461 5463 5465 5468 5470 5472 5474 5476 5478 5479 5481
5474 5470 5467 5463 5460 5458 5455 5452 5450 5448 5446 5445 5444 5444 5444 5444 5444 5443 5443 5443 5443 5443 5443 5443 5443 5444 5444 5445 5446 5448 5450 5452 5454 5456 5458 5460 5462 5464 5466 5468 5470 5472 5474 5475
5467 5463 5460 5457 5454 5451 5449 5446 5444 5442 5440 5439 5439 5438 5438 5438 5438 5438 5438 5438 5437 5438 5438 5438 5438 5439 5439 5440 5441 5443 5445 5447 5449 5451 5453 5455 5457 5459 5461 5463 5465 5467 5468 5469
5460 5456 5453 5450 5447 5445 5443 5440 5438 5436 5435 5434 5433 5433 5433 5433 5433 5433 5433 5433 5433 5433 5433 5433 5434 5434 5435 5436 5437 5438 5440 5442 5444 5446 5448 5450 5452 5454 5456 5458 5460 5462 5463 5464
5453 5450 5446 5444 5441 5439 5437 5434 5433 5431 5430 5429 5428 5428 5427 5427 5427 5427 5427 5428 5428 5428 5428 5429 5429 5430 5431 5432 5433 5434 5436 5438 5440 5442 5444 5446 5448 5450 5452 5454 5455 5457 5458 5459
5446 5443 5440 5437 5435 5433 5431 5429 5428 5426 5425 5424 5424 5423 5422 5422 5422 5422 5422 5423 5423 5424 5424 5424 5425 5426 5426 5428 5429 5430 5432 5434 5436 5438 5440 5441 5443 5445 5447 5449 5451 5453 5454 5455
5439 5436 5434 5432 5430 5428 5426 5424 5423 5421 5420 5419 5419 5418 5417 5417 5417 5417 5417 5418 5418 5419 5420 5420 5421 5421 5422 5424 5425 5427 5428 5430 5432 5434 5436 5438 5439 5441 5443 5445 5447 5449 5450 5451